Theta_e
338 343 347 347 348 348 347 347 347 348 349 350 350 350 350 350 349 349 351 352 350 351 350 349 350 348 347 347 348 349 349 348 347 348 347 347 344 343 343 343 343 338 341
340 342 345 347 347 348 348 347 347 347 349 351 350 350 350 351 350 351 351 351 350 350 349 347 347 346 346 346 347 347 347 346 346 346 347 346 344 344 344 343 343 340 341
338 341 343 346 347 347 348 348 348 348 349 349 350 350 350 350 350 350 350 350 351 351 348 347 345 344 344 346 346 346 346 344 344 344 342 336 337 343 343 342 343 342 342
339 339 341 346 346 347 347 348 347 348 349 350 350 350 350 349 348 348 350 349 349 350 347 346 344 343 344 345 345 345 345 343 343 341 335 339 340 344 344 342 343 343 344
337 339 342 345 345 347 347 347 347 348 347 348 349 349 349 348 348 348 349 348 348 347 343 343 343 343 343 343 344 344 345 344 342 338 337 338 338 342 343 343 343 343 342
338 340 343 344 346 346 346 347 347 346 346 346 347 348 349 347 346 347 348 348 349 346 343 342 339 339 339 338 338 339 339 339 337 332 337 341 337 343 344 344 341 340 339
338 340 342 344 345 346 347 346 346 346 345 346 346 348 348 348 348 348 346 345 344 343 340 339 339 339 339 338 337 336 336 336 329 332 336 337 339 344 345 342 340 339 337
337 339 342 346 346 345 345 345 345 345 345 345 346 347 347 348 346 345 345 344 342 341 340 339 339 339 338 338 337 336 336 337 337 337 336 337 343 344 343 340 338 336 335
338 339 341 342 344 344 342 343 343 344 344 344 345 346 345 344 344 344 343 341 340 339 339 340 339 339 338 338 340 339 337 339 337 337 340 340 344 342 341 338 336 334 332
337 338 339 340 339 339 340 342 342 343 343 344 344 343 342 342 342 341 340 339 338 338 339 340 339 338 340 340 339 339 339 340 339 337 340 341 342 341 339 336 333 330 327
335 336 337 335 335 337 340 343 343 344 343 342 342 341 337 336 335 335 336 337 336 335 336 337 338 337 338 338 339 339 339 339 339 339 338 339 339 337 335 332 329 327 325
330 333 334 333 333 337 340 340 339 340 338 337 337 333 330 329 329 332 335 335 334 334 334 336 337 337 336 333 333 336 337 338 339 337 336 336 335 334 332 329 326 324 323
331 333 333 333 332 332 334 333 334 335 334 332 332 328 327 327 329 328 327 327 323 328 325 330 335 335 332 330 331 333 332 337 336 335 333 333 333 332 330 327 324 323 321
331 332 333 333 328 329 331 330 329 330 328 327 329 326 326 324 324 323 323 321 318 321 323 329 334 334 330 329 329 329 329 332 332 331 331 331 331 329 328 326 323 321 320
330 332 332 332 326 329 328 325 325 326 327 326 326 327 325 323 322 320 319 319 319 320 326 333 332 331 328 327 324 324 324 325 327 328 327 328 328 327 327 325 322 320 318
331 331 332 330 326 329 326 323 323 322 323 324 326 328 326 325 321 319 318 319 319 321 331 332 331 328 325 324 321 321 320 320 321 321 321 321 325 325 323 322 321 319 318
330 332 331 329 326 327 324 321 321 322 322 321 324 326 327 323 322 321 319 320 322 326 335 330 328 327 325 323 320 319 320 318 318 316 314 313 314 320 320 318 318 317 317
329 331 331 331 325 326 325 322 324 323 323 322 325 326 326 325 323 325 323 332 335 332 331 327 327 325 323 320 319 318 317 317 315 313 310 309 308 309 315 316 315 314 314
329 330 329 330 324 324 327 324 326 326 325 324 327 328 327 329 329 328 332 334 334 331 327 325 322 323 319 318 319 318 317 314 311 310 306 305 306 305 305 313 313 312 311
328 330 329 330 328 325 328 327 327 329 327 329 329 329 330 332 333 332 331 330 332 328 325 323 321 318 319 317 316 310 311 309 306 305 304 304 302 303 302 302 302 305 309
327 328 327 327 328 326 326 325 325 327 327 329 330 330 332 335 335 334 333 331 330 327 324 322 319 316 311 310 305 304 303 303 301 299 300 300 300 301 300 300 300 300 302
325 327 326 326 327 327 328 328 328 327 327 331 330 330 332 334 333 333 331 329 327 324 323 322 318 312 308 309 306 305 299 300 299 299 297 298 297 299 300 300 300 300 297
323 325 326 325 327 328 327 326 326 324 325 327 330 330 331 332 331 331 330 328 325 326 324 321 317 311 309 309 310 306 297 296 296 297 295 295 294 294 295 297 299 299 298
323 326 326 326 327 328 326 326 327 326 324 327 330 331 330 332 330 330 328 326 323 324 323 320 316 312 311 307 306 312 305 300 295 293 296 293 294 294 293 293 294 298 297
324 324 326 326 327 328 326 326 326 326 325 330 330 328 330 329 330 329 326 322 321 322 322 320 316 311 311 308 306 305 303 300 298 295 291 292 293 293 293 293 293 296 295
324 324 326 326 326 327 327 324 325 326 325 329 329 329 328 328 325 325 324 321 321 321 320 320 318 313 310 309 308 306 306 302 300 295 291 290 291 292 293 293 293 293 293
Wind_Speed
9 9 13 13 14 14 16 14 17 19 21 22 23 23 22 20 20 18 15 14 15 18 18 17 18 18 20 21 22 20 18 17 17 19 18 18 20 19 18 17 16 13 17
16 11 13 14 16 17 19 16 18 20 21 22 22 23 21 18 17 15 17 15 17 16 18 18 18 19 20 21 18 18 18 17 18 18 18 19 19 19 18 17 16 13 15
14 12 11 15 16 18 18 18 18 20 21 20 21 21 20 19 17 16 17 16 16 17 17 18 18 19 20 18 15 15 16 16 17 17 17 8 10 17 17 16 15 15 15
15 12 11 15 16 17 17 17 18 19 20 20 20 20 20 19 16 14 15 16 15 16 17 17 18 18 17 15 14 13 14 15 12 12 6 7 11 16 16 16 15 15 15
13 12 12 15 15 17 17 18 18 17 17 19 19 19 19 17 15 14 14 16 15 15 15 16 16 16 12 12 12 10 8 8 11 10 7 6 7 13 16 16 14 18 18
12 12 13 15 15 17 17 18 18 18 17 16 18 19 18 17 16 12 15 15 15 13 14 13 12 12 12 12 10 8 7 7 8 6 5 11 8 16 17 18 18 18 17
12 12 12 14 15 17 16 17 17 18 18 17 17 19 18 16 15 14 16 15 13 12 12 12 11 11 12 10 9 8 7 8 7 7 5 5 10 17 20 19 18 18 19
14 12 12 15 14 16 16 15 14 16 17 18 17 18 18 15 16 16 14 12 11 10 9 10 10 11 10 8 6 8 8 10 10 8 6 5 14 20 20 19 18 18 18
12 12 11 10 12 14 14 15 12 14 15 17 18 17 17 15 15 15 14 13 11 9 10 10 11 11 10 7 11 10 12 15 11 7 8 5 18 20 20 18 18 17 17
10 12 15 11 8 9 9 15 15 13 13 14 16 16 15 14 13 13 12 11 10 8 8 14 14 9 13 12 20 25 19 17 10 7 6 8 18 20 20 19 18 18 17
12 14 15 9 8 9 10 11 15 15 13 14 13 14 11 6 7 8 7 10 9 7 6 16 11 12 18 17 18 18 16 7 9 7 6 18 19 19 19 18 18 17 17
17 14 12 9 9 10 9 10 9 10 6 6 7 6 4 5 5 5 6 8 7 7 6 13 11 16 10 7 7 11 7 9 8 8 7 19 17 18 18 18 18 16 17
18 12 12 12 9 9 8 6 5 5 5 4 6 5 5 5 3 3 2 2 2 5 3 6 8 8 10 7 7 7 8 8 6 6 10 15 18 19 18 17 16 16 15
17 14 14 14 8 7 7 5 6 7 4 4 5 7 6 4 4 4 3 3 3 2 5 5 6 10 11 11 11 9 9 8 6 6 9 15 17 17 18 16 16 15 14
18 16 16 15 10 9 9 6 6 7 7 6 5 5 4 4 5 4 4 4 3 3 3 6 7 9 10 10 9 9 9 9 9 6 5 13 13 14 16 15 15 14 13
19 18 16 16 13 12 9 10 8 6 6 6 6 6 8 6 5 5 4 4 4 4 4 6 8 8 8 8 9 8 8 7 9 7 6 8 14 12 14 14 14 14 13
20 20 18 17 15 14 11 11 7 7 7 5 6 7 8 6 6 6 5 5 5 4 10 7 8 9 8 7 9 7 7 8 8 8 6 5 6 12 12 12 12 12 12
21 21 19 16 16 15 12 11 9 7 8 8 6 6 8 9 7 6 5 4 5 8 9 8 8 7 8 7 7 6 5 7 8 8 6 4 4 4 8 11 12 11 11
22 22 20 19 18 16 12 11 9 12 9 9 7 7 9 8 8 7 7 7 9 10 8 8 4 9 8 6 7 6 4 5 6 6 6 6 5 4 3 10 10 10 10
22 22 20 18 18 17 12 12 8 10 10 9 8 8 10 6 8 7 6 7 9 9 8 6 9 5 8 8 8 5 4 3 4 4 5 5 5 5 5 5 4 4 10
22 23 22 22 18 15 11 13 11 12 8 9 8 9 9 8 11 11 9 9 8 11 11 10 9 12 5 8 7 5 4 4 3 3 4 4 5 5 5 5 3 2 3
24 24 21 23 18 16 12 11 10 8 5 10 7 8 6 8 9 10 11 11 10 9 11 12 12 5 3 6 5 4 3 1 2 1 2 4 5 4 5 5 5 4 4
25 25 24 23 20 17 15 9 5 5 3 4 9 8 7 10 9 10 8 9 7 9 10 10 10 9 10 3 12 6 3 4 3 0 1 2 6 3 3 6 6 5 4
25 23 24 22 20 15 14 13 16 12 9 4 8 7 6 10 9 8 8 7 8 6 10 11 9 10 10 7 1 0 3 7 4 2 1 2 3 5 5 4 6 6 5
26 24 24 23 22 19 16 13 12 12 7 6 6 9 9 7 10 10 8 8 8 6 9 11 8 9 8 7 5 4 2 2 3 4 3 3 0 2 4 5 5 5 5
22 22 20 22 21 20 18 15 13 14 9 11 12 11 9 8 6 8 9 8 8 8 10 9 9 11 8 6 5 4 5 5 4 4 3 2 3 3 2 3 5 5 5
Wind_Direction
166 166 147 133 122 123 125 127 116 110 107 111 116 119 121 129 131 131 133 133 131 113 111 105 104 105 108 109 103 103 101 96 93 85 96 98 94 92 89 84 81 79 80
143 152 143 129 120 120 124 124 117 112 110 112 122 125 127 131 132 133 127 126 116 115 112 112 110 112 105 103 105 108 106 98 90 91 93 96 94 91 89 85 81 82 81
141 140 139 128 122 123 128 124 123 118 110 114 117 118 122 124 121 124 119 117 112 110 110 108 108 107 108 107 114 112 108 102 99 97 93 87 88 92 92 89 87 84 81
137 135 138 129 125 125 128 125 125 123 117 118 120 122 120 122 122 110 106 111 108 111 112 113 110 109 110 112 110 114 111 106 93 97 88 92 94 98 94 90 84 81 78
133 133 137 128 126 124 123 127 127 127 125 127 126 120 119 118 119 109 102 110 110 110 115 111 110 114 109 104 100 102 107 93 86 98 94 101 102 93 90 84 79 75 71
136 130 132 125 122 122 121 124 125 128 129 131 132 126 127 132 120 109 112 109 111 115 113 110 114 111 101 96 105 121 121 103 89 87 83 104 100 95 91 87 81 79 77
135 130 130 123 124 121 122 123 126 125 126 132 134 130 131 131 126 118 110 112 114 114 115 119 122 112 105 126 151 154 153 121 98 91 78 87 99 96 90 85 87 84 79
135 132 130 127 126 123 123 118 121 124 124 127 128 130 135 134 127 119 112 114 112 118 127 123 121 107 126 130 146 177 157 133 99 87 73 76 98 97 95 92 86 83 82
135 129 126 129 128 121 125 118 111 123 126 128 129 127 126 127 126 122 127 127 130 142 138 129 97 80 76 77 91 148 143 114 104 104 102 97 100 101 97 92 89 86 84
140 136 135 135 127 123 130 125 121 121 124 126 127 127 122 123 126 130 130 134 140 143 137 95 84 83 84 78 76 82 94 93 100 97 101 103 103 98 97 92 89 84 80
151 149 140 137 134 126 134 133 124 124 126 128 128 128 123 129 127 135 142 142 134 123 103 90 96 82 89 74 72 83 92 98 96 94 102 103 101 101 97 96 93 89 85
162 156 143 139 145 137 146 141 134 137 133 133 134 126 112 122 136 137 142 142 137 134 108 91 93 95 88 77 68 70 88 95 98 103 103 105 108 102 99 97 89 89 88
163 158 157 143 157 143 144 144 138 139 140 134 137 137 134 132 135 133 143 137 113 94 66 78 84 90 86 80 75 82 76 85 91 97 103 105 107 100 98 94 94 91 89
161 163 160 150 155 146 146 152 146 146 145 147 158 154 147 152 154 164 169 131 128 137 96 88 92 102 97 95 104 96 84 93 96 98 105 102 102 108 107 103 96 95 93
160 168 166 156 155 160 156 150 155 158 159 165 157 172 153 161 171 169 170 144 153 120 107 106 103 100 101 100 93 97 97 99 102 109 107 107 108 109 107 105 101 95 92
161 169 168 163 160 164 168 163 166 166 165 168 174 184 182 177 169 175 164 159 163 143 122 120 121 110 102 109 105 108 106 97 96 95 94 80 84 91 101 103 101 99 97
166 168 171 166 164 167 172 168 165 174 165 170 186 193 184 179 174 167 167 180 171 142 126 111 106 117 115 108 110 115 112 111 106 98 80 75 71 80 88 97 100 98 95
164 169 172 170 172 170 173 175 172 170 172 182 189 190 183 189 169 161 169 178 150 137 136 132 129 126 118 119 123 121 117 114 110 105 93 87 83 79 90 101 102 99 95
169 170 173 174 175 173 172 179 180 171 177 186 188 182 185 196 160 168 172 153 142 132 135 139 130 134 120 117 118 112 106 109 122 123 115 115 115 110 102 109 106 102 96
171 173 174 174 177 176 175 178 178 182 182 177 185 184 185 178 166 166 141 140 144 136 139 138 133 112 128 131 115 95 96 123 124 142 141 136 133 128 118 103 100 103 105
171 175 179 177 178 175 175 178 176 182 182 186 183 184 183 160 157 156 151 147 157 151 154 149 132 128 102 122 105 76 43 52 80 114 140 149 147 146 135 136 135 109 104
171 180 180 181 181 177 170 174 174 167 175 182 190 168 167 157 154 152 156 162 160 140 146 149 149 125 101 168 130 106 137 354 51 120 139 155 165 162 162 159 154 135 108
178 180 183 184 178 183 172 155 131 100 86 149 178 169 170 152 156 151 158 147 156 155 158 160 154 143 161 213 173 137 130 197 131 336 215 184 157 156 168 162 166 150 145
183 178 180 183 180 180 177 177 176 183 174 173 179 169 163 154 155 158 154 154 158 154 153 163 161 155 156 171 187 210 112 144 165 160 267 204 192 160 169 170 154 162 158
179 180 181 180 180 174 178 186 185 180 165 151 163 160 168 159 158 163 156 155 155 155 157 158 159 160 170 155 167 150 121 101 96 133 182 202 322 202 199 178 145 147 166
180 180 178 179 180 175 178 177 189 187 169 164 167 170 170 168 161 159 153 157 163 165 171 170 168 173 173 158 173 160 159 159 177 146 131 155 167 236 214 181 152 162 173